Superior, WI

10:10 PM CDT on April 24, 2017 (GMT -0500)
Bong

Weather History for KSUW - June, 2013

Change the Weather History Date:

Monday, June 24, 2013

  Actual Average Record
Temperature  
Mean Temperature 65 °F -  
Max Temperature 84 °F 70 °F 87 °F (1980)
Min Temperature 46 °F 49 °F 37 °F (2004)
Growing Degree Days 15 (Base 50)    
Moisture  
Dew Point 57 °F    
Average Humidity 71    
Maximum Humidity 100    
Minimum Humidity 38    
Precipitation  
Precipitation 0.00 in - - ()
Sea Level Pressure  
Sea Level Pressure 29.84 in    
Wind  
Wind Speed 5 mph (SW)    
Max Wind Speed 13 mph    
Max Gust Speed 17 mph    
Visibility 10 miles    
Events      
Averages and records for this station are not official NWS values.
T = Trace of Precipitation, MM = Missing Value Source: NWS Daily Summary

Daily Weather History Graph

Daily Weather History Graph

Search for Another Location

Airport or City:

Trip Planner

Search our weather history database for the weather conditions in past years. The results will help you decide how hot, cold, wet, or windy it might be!

Date:

Astronomy

Jun. 24, 2013 Rise Set
Actual Time 5:15 AM CDT 9:06 PM CDT
Civil Twilight 4:36 AM CDT 9:45 PM CDT
Nautical Twilight 3:42 AM CDT 10:39 PM CDT
Astronomical Twilight 2:23 AM CDT 11:57 PM CDT
Moon 9:59 PM CDT (6/24) 6:50 AM CDT (6/24)
Length of Visible Light 17h 09m
Length of Day
15h 50m
Full, 98% of the Moon is Illuminated
Jun 24
Full
Jun 29
Last Quarter
Jul 8
New
Jul 15
First Quarter
Jul 22
Full

Hourly Weather History & Observations

Time (CDT) Temp. Heat Index Dew Point Humidity Pressure Visibility Wind Dir Wind Speed Gust Speed Precip Events Conditions
12:15 AM 46.8 °F - 46.2 °F 98% 29.83 in 10.0 mi Calm Calm - N/A   Clear
12:35 AM 47.1 °F - 46.8 °F 99% 29.83 in 10.0 mi Calm Calm - N/A   Clear
12:55 AM 49.5 °F - 48.9 °F 98% 29.84 in 10.0 mi Calm Calm - N/A   Clear
1:15 AM 48.6 °F - 48.2 °F 99% 29.84 in 10.0 mi WSW 3.5 mph - N/A   Clear
1:35 AM 49.1 °F - 48.6 °F 98% 29.85 in 10.0 mi Calm Calm - N/A   Clear
1:55 AM 50.0 °F - 49.3 °F 97% 29.85 in 10.0 mi WSW 4.6 mph - N/A   Clear
2:15 AM 55.6 °F - 55.6 °F 100% 29.86 in 10.0 mi WSW 4.6 mph - N/A   Clear
2:35 AM 57.2 °F - 56.7 °F 98% 29.86 in 10.0 mi WSW 4.6 mph - N/A   Clear
2:55 AM 54.9 °F - 54.3 °F 98% 29.87 in 10.0 mi SW 4.6 mph - N/A   Clear
3:15 AM 54.9 °F - 54.9 °F 100% 29.87 in 7.0 mi SW 4.6 mph - N/A   Clear
3:35 AM 54.7 °F - 54.5 °F 99% 29.87 in 7.0 mi SW 5.8 mph - N/A   Clear
3:55 AM 57.0 °F - 56.7 °F 99% 29.87 in 10.0 mi SW 5.8 mph - N/A   Clear
4:15 AM 56.3 °F - 55.8 °F 98% 29.86 in 10.0 mi SW 3.5 mph - N/A   Clear
4:35 AM 54.5 °F - 54.5 °F 100% 29.86 in 4.0 mi SW 6.9 mph - N/A   Clear
4:55 AM 55.8 °F - 55.6 °F 99% 29.86 in 10.0 mi SW 4.6 mph - N/A   Clear
5:15 AM 56.3 °F - 56.3 °F 100% 29.87 in 7.0 mi SW 6.9 mph - N/A   Clear
5:35 AM 55.9 °F - 55.8 °F 99% 29.87 in 5.0 mi SW 5.8 mph - N/A   Clear
5:55 AM 55.6 °F - 55.4 °F 99% 29.87 in 5.0 mi SSW 5.8 mph - N/A   Clear
6:15 AM 57.2 °F - 57.0 °F 99% 29.89 in 7.0 mi SSW 8.1 mph - N/A   Clear
6:35 AM 59.0 °F - 58.1 °F 97% 29.90 in 10.0 mi SW 6.9 mph - N/A   Clear
6:55 AM 60.4 °F - 59.0 °F 95% 29.89 in 10.0 mi WSW 5.8 mph - N/A   Clear
7:15 AM 61.5 °F - 59.7 °F 94% 29.89 in 10.0 mi WSW 4.6 mph - N/A   Clear
7:35 AM 63.0 °F - 60.4 °F 91% 29.90 in 10.0 mi WSW 4.6 mph - N/A   Clear
7:55 AM 64.6 °F - 61.2 °F 89% 29.89 in 10.0 mi SW 6.9 mph - N/A   Clear
8:15 AM 66.4 °F - 61.7 °F 85% 29.88 in 10.0 mi SW 3.5 mph - N/A   Clear
8:35 AM 68.7 °F - 62.4 °F 80% 29.87 in 10.0 mi SW 3.5 mph - N/A   Clear
8:55 AM 70.0 °F - 62.6 °F 77% 29.87 in 10.0 mi SSW 3.5 mph - N/A   Clear
9:15 AM 71.8 °F - 62.2 °F 72% 29.87 in 10.0 mi SW 4.6 mph - N/A   Clear
9:35 AM 73.6 °F - 62.1 °F 67% 29.87 in 10.0 mi SW 5.8 mph - N/A   Clear
9:55 AM 75.6 °F - 61.2 °F 61% 29.87 in 10.0 mi WSW 3.5 mph - N/A   Clear
10:15 AM 77.2 °F - 58.8 °F 53% 29.87 in 10.0 mi WSW 8.1 mph - N/A   Clear
10:35 AM 77.9 °F - 58.5 °F 51% 29.87 in 10.0 mi WSW 6.9 mph - N/A   Clear
10:55 AM 78.8 °F - 59.0 °F 51% 29.87 in 10.0 mi SW 8.1 mph - N/A   Clear
11:15 AM 79.5 °F - 58.3 °F 48% 29.87 in 10.0 mi SW 9.2 mph - N/A   Clear
11:35 AM 80.4 °F 80.7 °F 57.6 °F 45% 29.87 in 10.0 mi West 12.7 mph 17.3 mph N/A   Clear
11:55 AM 80.6 °F 80.6 °F 56.5 °F 43% 29.87 in 10.0 mi SW 8.1 mph - N/A   Clear
12:15 PM 81.0 °F 80.8 °F 55.9 °F 42% 29.85 in 10.0 mi WSW 5.8 mph - N/A   Scattered Clouds
12:35 PM 81.1 °F 81.0 °F 55.8 °F 42% 29.85 in 10.0 mi WSW 8.1 mph - N/A   Scattered Clouds
12:55 PM 81.5 °F 81.1 °F 55.8 °F 41% 29.84 in 10.0 mi WSW 4.6 mph 17.3 mph N/A   Clear
1:15 PM 82.2 °F 81.5 °F 55.0 °F 39% 29.83 in 10.0 mi SW 10.4 mph - N/A   Clear
1:35 PM 82.2 °F 81.8 °F 56.3 °F 41% 29.84 in 10.0 mi WSW 6.9 mph - N/A   Clear
1:55 PM 82.8 °F 82.2 °F 56.8 °F 41% 29.84 in 10.0 mi SSW 12.7 mph 16.1 mph N/A   Clear
2:15 PM 82.9 °F 82.3 °F 56.3 °F 40% 29.83 in 10.0 mi SW 11.5 mph - N/A   Clear
2:35 PM 83.3 °F 82.3 °F 55.4 °F 38% 29.82 in 10.0 mi WSW 8.1 mph - N/A   Clear
2:55 PM 84.2 °F 83.3 °F 56.5 °F 39% 29.82 in 10.0 mi WSW 10.4 mph - N/A   Clear
3:15 PM 83.8 °F 82.8 °F 55.8 °F 38% 29.81 in 10.0 mi WSW 8.1 mph 16.1 mph N/A   Clear
3:35 PM 84.2 °F 83.3 °F 56.5 °F 39% 29.80 in 10.0 mi WSW 9.2 mph - N/A   Clear
3:55 PM 83.8 °F 83.3 °F 57.6 °F 41% 29.79 in 10.0 mi SSW 6.9 mph 12.7 mph N/A   Clear
4:15 PM 84.2 °F 83.3 °F 56.8 °F 39% 29.78 in 10.0 mi WSW 9.2 mph - N/A   Clear
4:35 PM 84.2 °F 83.3 °F 56.8 °F 39% 29.78 in 10.0 mi WSW 6.9 mph 16.1 mph N/A   Clear
4:55 PM 82.4 °F 82.2 °F 57.6 °F 43% 29.79 in 10.0 mi West 8.1 mph - N/A   Clear
5:15 PM 81.5 °F 81.3 °F 56.5 °F 42% 29.79 in 10.0 mi West 10.4 mph - N/A   Clear
5:35 PM 81.1 °F 81.1 °F 56.8 °F 43% 29.80 in 10.0 mi West 8.1 mph - N/A   Clear
5:55 PM 81.1 °F 81.2 °F 57.6 °F 44% 29.79 in 10.0 mi WSW 6.9 mph - N/A   Clear
6:15 PM 81.5 °F 81.5 °F 57.4 °F 44% 29.79 in 10.0 mi WSW 5.8 mph - N/A   Clear
6:35 PM 80.8 °F 81.0 °F 57.7 °F 45% 29.79 in 10.0 mi WSW 9.2 mph - N/A   Clear
6:55 PM 80.8 °F 81.1 °F 58.3 °F 46% 29.80 in 10.0 mi WSW 8.1 mph - N/A   Clear
7:15 PM 79.3 °F - 58.3 °F 48% 29.80 in 10.0 mi WSW 6.9 mph - N/A   Clear
7:35 PM 78.1 °F - 58.6 °F 51% 29.80 in 10.0 mi SW 4.6 mph - N/A   Clear
7:55 PM 76.6 °F - 60.6 °F 58% 29.79 in 10.0 mi SW 4.6 mph - N/A   Clear
8:15 PM 75.7 °F - 61.0 °F 60% 29.79 in 10.0 mi Calm Calm - N/A   Clear
8:35 PM 72.1 °F - 62.2 °F 71% 29.79 in 10.0 mi Calm Calm - N/A   Clear
8:55 PM 70.0 °F - 61.7 °F 75% 29.79 in 10.0 mi Calm Calm - N/A   Clear
9:15 PM 68.4 °F - 61.7 °F 79% 29.79 in 10.0 mi Calm Calm - N/A   Clear
9:35 PM 66.0 °F - 61.2 °F 84% 29.79 in 10.0 mi WSW 3.5 mph - N/A   Clear
9:55 PM 66.7 °F - 61.0 °F 82% 29.80 in 10.0 mi WSW 3.5 mph - N/A   Clear
10:15 PM 65.3 °F - 61.2 °F 86% 29.80 in 10.0 mi SSW 4.6 mph - N/A   Clear
10:35 PM 65.7 °F - 61.2 °F 85% 29.81 in 10.0 mi SW 4.6 mph - N/A   Clear
10:55 PM 64.0 °F - 60.8 °F 89% 29.80 in 10.0 mi SW 3.5 mph - N/A   Clear
11:15 PM 62.6 °F - 60.3 °F 92% 29.80 in 10.0 mi SW 3.5 mph - N/A   Clear
11:35 PM 62.4 °F - 60.4 °F 93% 29.81 in 10.0 mi WSW 5.8 mph - N/A   Clear
11:55 PM 64.9 °F - 60.8 °F 86% 29.80 in 10.0 mi SW 3.5 mph - N/A   Clear